Theta_e
289 284 277 279 281 283 282 280 279 284 285 282 282 282 285 288 286 285 285 285 287 289 291 292 294 293 293 292 292 292 292 291 290 288 287 286 286 287 288 289 291 291 291 292
287 280 285 288 286 283 281 279 277 283 284 282 281 281 285 286 286 285 285 284 287 288 290 292 292 291 291 291 291 291 291 291 290 289 287 287 286 286 287 289 289 291 291 292
283 285 289 286 283 282 281 278 277 277 281 281 278 276 282 284 286 287 286 287 288 288 288 289 291 290 290 289 290 291 291 291 290 290 289 287 287 286 286 286 288 290 291 291
282 287 286 283 281 282 278 281 281 279 272 269 277 268 276 280 282 284 285 284 285 287 288 289 289 288 289 289 290 291 291 291 291 290 287 285 283 283 284 286 288 288 290 289
280 282 281 280 281 283 279 282 279 277 269 269 272 266 275 279 279 281 283 284 285 286 287 288 288 290 290 290 289 290 290 290 290 289 287 285 283 284 285 286 286 287 288 288
281 285 283 282 283 282 283 278 277 275 267 263 266 269 273 277 279 280 282 283 285 285 285 286 287 288 287 287 287 288 289 289 289 287 285 284 282 283 284 285 284 285 285 285
279 279 282 284 279 282 279 270 265 268 266 266 262 268 273 280 280 283 283 283 283 284 284 285 286 286 286 285 285 286 288 287 287 284 283 283 284 284 284 284 284 284 285 286
269 270 275 283 279 277 277 272 269 263 265 267 263 266 276 281 280 282 283 282 283 283 284 284 285 285 284 285 284 284 285 284 283 282 282 284 285 284 284 284 284 284 285 285
270 273 280 281 282 279 276 267 275 264 259 262 268 273 280 279 275 279 280 282 282 283 283 284 284 285 285 283 283 283 283 282 281 281 282 283 283 283 282 283 285 286 286 286
277 269 275 279 281 279 275 277 267 265 261 260 266 264 274 272 271 273 278 279 279 282 283 283 284 284 284 283 282 282 281 280 280 281 283 283 283 283 283 284 284 286 286 286
276 270 271 277 271 270 269 267 268 269 271 265 261 269 275 275 271 275 277 278 277 279 279 281 282 283 283 282 281 281 280 279 280 282 282 281 282 282 283 283 285 285 286 286
279 276 267 272 278 280 277 271 273 267 265 267 267 268 275 273 269 270 274 277 277 275 280 280 280 281 282 280 280 280 279 279 281 281 281 281 281 281 281 283 284 285 285 286
279 269 263 270 274 275 272 276 277 271 273 267 265 272 272 268 270 271 271 274 277 276 277 276 276 280 280 279 279 278 278 279 281 280 280 280 280 280 282 283 284 284 285 285
284 277 270 268 268 269 269 274 276 273 262 269 271 275 275 274 272 273 273 275 279 280 277 272 273 276 276 275 275 275 276 278 280 279 279 278 278 280 282 283 283 283 284 284
280 275 275 275 274 272 275 273 273 272 273 270 276 275 279 280 282 284 280 275 274 279 278 275 273 275 273 272 273 272 270 272 274 273 271 274 276 280 282 282 283 284 284 284
280 275 270 271 277 278 275 278 277 276 277 275 276 277 284 284 275 274 278 282 280 277 277 275 275 274 275 274 274 272 270 269 269 268 270 269 275 279 277 281 282 283 283 283
278 275 270 271 272 270 270 274 277 277 278 278 273 278 283 280 276 279 278 278 279 279 278 275 276 276 275 273 273 271 270 264 266 266 266 268 280 279 277 280 282 282 282 282
280 278 275 272 268 266 274 278 278 278 279 280 280 281 282 281 274 280 280 280 279 278 277 276 275 270 272 266 266 264 263 265 266 264 265 266 280 280 280 281 281 281 282 281
281 278 275 271 269 273 276 278 276 275 277 281 280 282 283 284 277 280 282 280 281 279 279 278 275 273 268 269 265 266 262 262 263 268 268 268 279 279 280 280 280 281 281 275
277 281 276 273 269 265 273 275 279 278 272 281 281 282 281 279 276 281 285 283 284 282 281 281 281 279 278 277 273 269 266 265 269 270 270 270 270 279 280 280 280 280 279 274
269 272 272 273 271 274 278 278 278 272 274 280 280 281 279 278 282 283 282 281 282 282 282 281 279 280 279 278 275 273 272 269 272 274 273 272 272 275 280 280 280 278 279 279
270 269 270 272 269 268 280 278 275 280 283 282 280 281 281 281 281 281 282 281 281 281 280 281 280 280 279 278 275 275 274 275 274 275 276 275 275 277 277 276 271 271 272 272
269 275 273 274 274 281 282 281 283 282 281 281 280 281 282 282 281 280 280 280 281 281 282 279 280 279 277 276 275 275 275 274 274 274 274 273 274 276 277 274 274 273 272 271
273 276 272 272 275 277 279 281 282 283 284 283 284 283 283 283 282 282 281 283 282 281 279 275 274 276 277 274 275 276 271 273 273 273 272 272 273 273 272 276 275 273 271 271
273 274 272 272 275 276 278 279 281 282 283 282 282 283 284 284 283 281 283 284 284 282 279 275 277 278 277 273 273 272 271 272 273 272 272 273 273 273 273 274 274 275 274 275
275 273 270 269 275 275 276 279 280 279 279 280 281 281 284 281 283 283 283 283 281 281 280 275 276 277 278 273 273 271 271 272 272 272 272 273 273 272 273 274 274 281 281 282
Wind_Speed
3 7 2 2 2 2 0 1 3 4 1 3 6 10 17 15 8 9 8 9 9 4 5 7 7 8 8 7 7 6 6 5 3 2 2 2 2 3 3 4 7 6 6 6
6 4 2 3 3 2 2 1 5 4 3 4 7 15 20 11 7 5 5 6 9 8 6 7 7 6 5 6 6 5 6 6 4 2 2 2 2 4 4 4 5 6 6 5
5 2 2 3 4 4 2 2 2 4 8 3 7 9 6 3 4 5 7 6 6 9 9 7 7 6 4 4 6 6 7 7 5 4 1 1 1 2 2 3 4 3 5 6
5 2 3 4 3 3 1 3 1 2 6 3 5 8 8 2 2 2 5 6 7 7 5 5 5 5 7 8 7 8 7 6 5 4 2 2 3 4 3 3 3 4 5 6
4 2 3 4 2 3 2 3 1 3 3 5 6 5 11 3 3 5 6 6 7 7 7 6 6 6 6 5 6 6 6 4 3 3 2 2 4 4 4 4 5 4 4 4
2 0 3 1 2 2 2 4 6 4 4 4 4 5 8 4 5 4 4 7 8 7 5 4 3 3 2 3 4 3 5 5 3 3 2 4 6 6 4 4 5 3 3 3
4 2 1 3 1 2 6 6 4 6 5 6 4 2 12 6 1 8 9 9 8 8 6 4 6 5 4 6 5 4 4 4 3 2 2 4 6 6 6 6 5 6 6 7
4 8 1 4 2 4 1 6 6 6 3 5 4 7 8 6 1 4 7 9 8 8 7 9 8 6 6 6 5 4 4 3 1 2 4 4 5 4 4 5 5 4 7 7
3 5 1 3 2 3 3 1 2 6 2 4 5 8 10 1 4 2 7 9 9 9 8 8 7 7 6 6 6 6 5 3 3 4 4 5 5 5 5 7 6 6 8 8
2 4 2 2 2 3 5 1 4 4 1 5 6 6 8 5 8 6 9 10 8 8 6 7 7 7 5 4 4 5 5 5 5 4 3 3 5 6 6 6 7 8 8 9
4 5 6 3 5 8 2 2 2 3 5 6 3 8 8 9 9 12 12 9 10 9 8 8 7 7 6 4 4 5 5 5 4 3 3 4 5 5 5 5 7 8 9 10
3 4 3 10 2 2 5 7 5 6 7 5 2 11 5 7 6 7 10 10 7 6 8 7 7 7 6 6 6 6 5 5 4 3 2 4 5 5 5 6 8 8 9 8
4 2 4 9 5 4 4 5 4 3 1 9 4 10 2 4 6 7 7 9 10 7 6 7 5 7 7 7 6 7 6 5 4 1 2 4 4 5 6 7 8 8 9 8
4 4 8 9 8 4 3 5 7 6 4 4 14 24 7 9 8 7 9 10 10 9 8 4 5 7 7 6 7 6 6 5 4 2 3 4 4 5 6 7 7 8 8 8
5 7 6 11 10 7 13 14 9 15 15 13 27 24 15 18 19 17 11 7 7 11 8 8 6 7 6 6 6 5 4 4 4 3 3 4 4 5 5 6 7 7 7 7
4 7 3 8 12 15 20 20 19 23 25 24 28 35 20 14 7 8 10 13 12 11 9 8 8 7 8 7 7 6 6 5 4 4 5 3 3 4 5 5 6 6 6 6
6 4 2 21 5 6 20 21 29 26 19 21 23 33 21 20 12 13 10 11 13 11 10 9 9 8 7 8 7 8 7 4 5 4 4 4 4 4 4 3 5 5 5 6
14 9 4 14 1 21 9 5 13 24 24 21 22 23 24 15 7 11 11 12 11 10 9 9 7 5 7 4 5 4 4 5 5 5 4 4 4 3 3 2 4 4 4 4
17 14 11 13 12 21 28 19 10 6 18 17 20 29 24 21 3 10 14 13 12 10 9 8 6 5 4 5 4 6 4 4 4 7 7 6 6 4 4 2 3 4 4 4
5 14 12 13 14 19 3 2 3 4 19 12 15 20 14 6 6 15 10 14 17 11 7 8 7 5 6 6 7 7 6 6 8 7 8 6 5 6 5 4 3 5 3 3
1 4 18 18 24 22 6 4 1 18 17 7 6 10 6 6 10 10 7 4 8 9 9 6 6 7 8 6 8 8 6 11 10 6 6 6 5 6 5 4 3 5 3 4
7 9 13 14 24 28 5 6 8 10 13 11 6 6 5 7 9 8 8 6 7 8 6 5 6 7 6 7 8 8 10 8 7 6 6 6 6 5 4 4 3 3 1 1
15 10 11 8 10 20 23 23 18 13 17 10 3 4 4 7 5 3 1 4 7 7 7 5 7 7 6 7 9 8 9 8 7 7 7 6 5 5 4 4 3 2 1 2
12 14 20 26 33 22 15 19 21 20 14 11 17 15 12 13 7 2 0 4 7 7 8 5 4 7 9 7 8 12 5 7 8 8 7 6 6 5 3 2 3 3 2 2
14 22 28 29 27 24 25 22 12 10 13 18 21 23 19 16 11 8 10 11 13 9 7 5 6 8 11 6 8 7 7 8 8 7 6 7 6 6 4 3 3 3 3 3
18 24 17 24 31 26 29 28 24 23 23 24 20 21 20 9 16 11 11 11 8 8 7 5 8 8 11 6 7 7 8 10 9 8 7 7 6 5 4 5 3 7 6 6
Wind_Direction
11 68 97 124 72 81 11 357 280 278 14 287 251 275 278 278 247 248 230 219 216 149 94 101 113 117 124 132 142 159 170 201 168 201 231 284 256 277 289 286 277 273 274 279
27 86 65 82 52 63 37 81 290 294 5 336 295 288 282 297 261 214 220 166 140 125 101 105 119 126 146 162 176 190 205 204 204 173 201 192 214 260 251 258 279 283 287 288
114 103 28 60 26 52 34 166 321 264 323 301 321 303 332 14 72 72 57 111 112 139 140 146 149 160 165 200 214 221 221 218 200 194 190 316 328 306 303 290 282 287 311 310
77 1 68 48 89 79 254 360 47 15 43 268 45 282 307 272 144 116 122 109 130 130 131 149 163 188 210 230 230 233 226 197 199 171 175 245 251 281 252 270 268 292 293 295
257 83 63 58 38 36 231 13 47 92 83 48 333 75 269 208 205 226 196 165 160 160 158 175 194 215 234 244 238 230 206 199 187 185 193 240 267 262 267 276 284 289 293 316
126 7 62 70 83 56 65 46 28 50 88 18 255 126 281 238 216 183 185 164 161 154 157 154 156 152 276 307 295 259 232 227 194 171 245 258 268 280 288 293 298 296 277 278
354 27 21 34 117 3 57 53 344 350 356 226 321 37 245 267 183 181 168 171 160 150 146 180 215 228 252 264 273 272 228 214 184 193 267 275 276 285 286 287 286 287 297 297
111 330 71 333 116 181 125 142 155 218 258 265 359 243 258 217 205 117 169 165 162 170 193 226 245 225 237 250 246 248 216 202 206 269 274 275 285 278 279 279 276 282 296 295
99 284 142 43 358 96 255 71 169 98 66 50 241 288 298 33 311 274 151 161 185 196 220 245 268 236 234 226 231 215 196 210 244 262 273 283 286 285 274 272 271 285 284 285
187 342 239 262 78 9 151 184 43 359 306 281 284 273 236 274 243 244 208 200 203 205 233 263 267 269 251 242 229 206 192 211 232 245 258 267 281 277 274 270 283 293 295 289
125 106 287 55 201 184 34 310 9 116 169 194 255 259 216 220 208 201 213 215 203 217 254 268 270 276 276 273 245 220 210 214 230 238 254 288 292 293 291 292 310 305 297 293
205 152 239 231 227 171 187 195 161 139 262 236 154 267 237 234 228 197 225 227 233 228 261 264 265 276 264 257 243 218 207 205 213 226 290 307 314 311 306 314 308 300 297 298
176 285 356 331 348 355 218 213 172 133 116 219 164 259 320 316 285 242 229 239 246 250 272 264 282 256 245 243 233 209 203 208 209 235 313 313 308 314 321 310 307 304 308 304
167 209 184 221 213 144 215 217 209 174 159 244 229 262 263 285 256 262 247 244 254 253 257 276 279 254 239 230 221 210 216 208 201 232 286 292 310 308 317 311 308 305 305 303
182 235 231 245 248 229 244 241 214 211 225 222 262 254 252 235 255 265 236 245 260 262 271 245 247 249 240 234 223 220 219 209 180 205 253 270 290 290 323 305 302 301 304 311
198 254 163 257 250 259 262 250 235 238 237 246 258 266 255 257 238 256 241 261 269 269 257 244 249 250 244 230 219 209 215 215 176 203 239 259 279 303 302 308 308 306 312 313
205 195 158 265 256 301 271 233 235 244 235 229 242 252 276 264 236 243 242 236 238 242 239 242 238 237 236 228 204 209 208 168 183 206 238 249 278 303 305 303 300 306 311 312
242 225 214 274 48 265 257 241 218 227 239 226 249 260 260 257 242 235 225 229 232 226 234 245 233 238 242 222 201 161 165 180 193 219 231 234 245 271 293 295 306 306 292 320
222 239 256 254 239 275 276 285 279 202 262 221 231 252 260 266 236 259 226 206 215 205 218 223 208 210 205 207 184 163 162 171 197 225 228 221 223 244 270 275 296 313 322 352
190 224 238 249 254 257 9 321 294 270 273 210 217 257 266 129 242 266 271 210 218 208 204 214 205 196 207 216 165 171 203 194 221 218 222 209 206 228 251 257 273 293 319 292
53 226 239 251 256 255 231 204 146 275 295 243 235 247 253 198 230 255 312 245 196 177 194 203 193 207 216 182 168 200 193 219 222 200 199 204 196 214 231 238 258 271 273 292
292 278 258 255 256 269 264 302 240 292 297 265 251 239 203 237 271 263 266 245 160 171 182 195 217 233 220 186 181 204 218 213 196 190 188 192 193 205 216 212 240 245 219 343
263 256 282 272 285 316 304 293 296 304 305 281 261 278 319 282 251 182 218 325 284 198 200 191 204 234 233 200 193 205 230 176 181 179 188 185 185 201 192 200 207 209 163 107
285 298 277 290 285 288 281 293 283 271 279 306 309 299 292 269 245 233 206 269 269 253 240 200 177 233 253 211 203 221 170 170 168 189 185 178 184 194 200 207 194 165 167 134
280 285 269 271 276 277 274 274 265 273 268 283 274 279 282 271 250 209 220 230 239 238 236 176 210 234 240 205 214 207 187 166 185 186 182 188 179 191 187 191 186 179 203 174
261 258 268 272 276 275 279 279 272 274 282 283 275 276 269 221 250 249 253 237 228 235 247 210 222 231 240 213 226 207 184 184 180 187 186 189 178 181 178 167 203 186 171 149